Regional Weather Roundup
Issued by NWS

Home | Current Version | Previous Version | Graphics & Text | Print | Product List | Glossary On
Versions: 1 2 3 4 5 6 7 8 9 10 11 12 13 14 15 16 17 18 19 20 21 22 23 24 25 26 27 28 29 30 31 32 33 34 35 36 37 38 39 40 41 42 43 44 45 46 47 48 49 50
395
ASUS43 KBIS 241310
RWRND
NORTH DAKOTA REGIONAL WEATHER ROUNDUP
NATIONAL WEATHER SERVICE EASTERN NORTH DAKOTA/GRAND FORKS ND
800 AM CDT TUE APR 24 2018

  NOTE: "FAIR" INDICATES FEW OR NO CLOUDS BELOW 12,000 FEET WITH NO
  SIGNIFICANT WEATHER AND/OR OBSTRUCTIONS TO VISIBILITY.

NDZ001>003-009>011-017-241400-
...NORTHWEST NORTH DAKOTA...

CITY           SKY/WX    TMP DP  RH WIND       PRES   REMARKS
WILLISTON      FAIR      31  25  78 CALM      30.48R
MINOT          FAIR      36  25  64 W3        30.44R
MINOT AFB      FAIR      34  26  72 NW10      30.43R WCI  26
$$

NDZ018>021-031>035-040>046-241400-
...SOUTHWEST NORTH DAKOTA...

CITY           SKY/WX    TMP DP  RH WIND       PRES   REMARKS
BISMARCK       FAIR      40  31  70 N12       30.41R WCI  33
DICKINSON      FAIR      33  25  72 NW7       30.44R WCI  27
GARRISON         N/A     34  27  75 N12       30.44R WCI  25
HETTINGER      CLOUDY    34  29  82 NW8       30.45R WCI  27
$$

NDZ004>008-012>016-024-026-027-054-241400-
...NORTHEAST NORTH DAKOTA...

CITY           SKY/WX    TMP DP  RH WIND       PRES   REMARKS
GRAND FORKS    PTSUNNY   37  33  85 N16       30.38R WCI  28
GRAND FORKS AF PTSUNNY   40  32  74 N12       30.39R WCI  32
DEVILS LAKE    FAIR      36  29  75 N16       30.41R WCI  26
$$

NDZ022-023-025-028>030-036>039-047>053-241400-
...SOUTHEAST NORTH DAKOTA...

CITY           SKY/WX    TMP DP  RH WIND       PRES   REMARKS
JAMESTOWN      CLOUDY    40  37  89 N7        30.36R
FARGO          LGT RAIN  42  39  89 N6        30.34R
WAHPETON       CLOUDY    41  36  81 N16G22    30.33R
$$




USA.gov is the U.S. government's official web portal to all federal, state and local government web resources and services.